This is the latest recevied weather packets stored in our database for station/object W0CHP-13. If no packets are shown the sender has not sent any weather packets the latest 10 day(s).
| Time | Temp. | Humidity | Pressure | Rain* | Wind** | Luminosity | Snow |
|---|---|---|---|---|---|---|---|
| 1788139819 | 78° F | 72% | 757.7 mmHg | 0 in | - | 0 W/m² | - |
| 1788139219 | 78° F | 72% | 757.3 mmHg | 0 in | - | 0 W/m² | - |
| 1788138617 | 79° F | 71% | 757.5 mmHg | 0 in | - | 0 W/m² | - |
| 1788138018 | 79° F | 70% | 757.5 mmHg | 0 in | - | 0 W/m² | - |
| 1788137417 | 80° F | 70% | 757.5 mmHg | 0 in | - | 1 W/m² | - |
| 1788136815 | 80° F | 69% | 757.3 mmHg | 0 in | - | 3 W/m² | - |
| 1788136218 | 81° F | 69% | 757.3 mmHg | 0 in | - | 8 W/m² | - |
| 1788135616 | 81° F | 68% | 757.3 mmHg | 0 in | - | 18 W/m² | - |
| 1788135018 | 81° F | 67% | 757 mmHg | 0 in | - | 28 W/m² | - |
| 1788134417 | 82° F | 68% | 757 mmHg | 0 in | - | 37 W/m² | - |
| 1788133815 | 82° F | 67% | 757 mmHg | 0 in | - | 27 W/m² | - |
| 1788133217 | 82° F | 67% | 756.7 mmHg | 0 in | - | 30 W/m² | - |
| 1788132615 | 83° F | 66% | 756.7 mmHg | 0 in | - | 36 W/m² | - |
| 1788132018 | 84° F | 65% | 756.7 mmHg | 0 in | - | 54 W/m² | - |
| 1788131417 | 84° F | 64% | 756.7 mmHg | 0 in | - | 45 W/m² | - |
| 1788130816 | 85° F | 63% | 756.4 mmHg | 0 in | - | 124 W/m² | - |
| 1788130215 | 85° F | 63% | 756.5 mmHg | 0 in | - | 204 W/m² | - |
| 1788129618 | 85° F | 63% | 756.4 mmHg | 0 in | - | 188 W/m² | - |
| 1788129016 | 84° F | 65% | 756.5 mmHg | 0 in | - | 162 W/m² | - |
| 1788128415 | 85° F | 65% | 756.4 mmHg | 0 in | - | 111 W/m² | - |
| 1788127817 | 84° F | 65% | 756.7 mmHg | 0 in | - | 82 W/m² | - |
| 1788127216 | 85° F | 64% | 756.4 mmHg | 0 in | - | 79 W/m² | - |
| 1788126618 | 86° F | 61% | 756.2 mmHg | 0 in | - | 113 W/m² | - |
| 1788126017 | 86° F | 61% | 756.2 mmHg | 0 in | - | 403 W/m² | - |
| 1788125415 | 87° F | 60% | 756.2 mmHg | 0 in | - | 196 W/m² | - |
* Rain latest hour (hover to see other rain measurements)
** Current wind speed in m/s (hover to see current wind gust speed)